• In Portugal
  • List of Countries
  • For 7 days
  • Water Temperature
  • Satellite Maps
  • Weather Map
  • Weather Widgets
  • user-avatar
    Login

    Hourly Weather Kobyle

    Today, 18 July, Wednesday

    Time Temperature Precipitation Wind Pressure Humidity
    00:00 +18°C° 0.1 mm 3 mps 732 mmHg 97%
    01:00 +18°C° 0 mm 3 mps 732 mmHg 97%
    02:00 +18°C° 0.4 mm 3 mps 732 mmHg 97%
    03:00 +18°C° 0.4 mm 3 mps 732 mmHg 97%
    04:00 +18°C° 0.4 mm 3 mps 732 mmHg 97%
    05:00 +18°C° 1.1 mm 3 mps 732 mmHg 97%
    06:00 +19°C° 1.1 mm 3 mps 732 mmHg 97%
    07:00 +19°C° 1.1 mm 3 mps 732 mmHg 97%
    08:00 +19°C° 1.4 mm 2 mps 732 mmHg 96%
    09:00 +19°C° 1.4 mm 2 mps 732 mmHg 96%
    10:00 +19°C° 1.4 mm 2 mps 732 mmHg 95%
    11:00 +20°C° 0.4 mm 2 mps 732 mmHg 93%
    12:00 +21°C° 0.4 mm 3 mps 732 mmHg 92%
    13:00 +21°C° 0.4 mm 3 mps 732 mmHg 90%
    14:00 +22°C° 0.5 mm 3 mps 732 mmHg 89%
    15:00 +22°C° 0.5 mm 3 mps 732 mmHg 88%
    16:00 +24°C° 0.5 mm 3 mps 732 mmHg 87%
    17:00 +22°C° 0.9 mm 3 mps 733 mmHg 89%
    18:00 +22°C° 0.9 mm 3 mps 733 mmHg 91%
    19:00 +21°C° 0.9 mm 3 mps 733 mmHg 93%
    20:00 +21°C° 1 mm 3 mps 733 mmHg 95%
    21:00 +20°C° 1 mm 2 mps 733 mmHg 96%
    22:00 +20°C° 1 mm 2 mps 733 mmHg 97%
    23:00 +20°C° 0.9 mm 3 mps 734 mmHg 97%

    Tomorrow, 19 July, Thursday

    Time Temperature Precipitation Wind Pressure Humidity
    00:00 +20°C° 0.9 mm 3 mps 734 mmHg 98%
    01:00 +20°C° 0.9 mm 3 mps 734 mmHg 98%
    02:00 +20°C° 0.5 mm 4 mps 734 mmHg 98%
    03:00 +20°C° 0.5 mm 4 mps 734 mmHg 98%
    04:00 +20°C° 0.5 mm 4 mps 735 mmHg 97%
    05:00 +20°C° 0.5 mm 4 mps 735 mmHg 97%
    06:00 +20°C° 0.5 mm 4 mps 735 mmHg 96%
    07:00 +20°C° 0.5 mm 5 mps 735 mmHg 96%
    08:00 +21°C° 0.4 mm 5 mps 736 mmHg 95%
    09:00 +21°C° 0.4 mm 5 mps 736 mmHg 93%
    10:00 +21°C° 0.4 mm 5 mps 736 mmHg 92%
    11:00 +22°C° 0.5 mm 5 mps 736 mmHg 90%
    12:00 +22°C° 0.5 mm 5 mps 736 mmHg 88%
    13:00 +23°C° 0.5 mm 6 mps 736 mmHg 87%
    14:00 +23°C° 0.6 mm 6 mps 736 mmHg 86%
    15:00 +23°C° 0.6 mm 6 mps 736 mmHg 85%
    16:00 +23°C° 0.6 mm 6 mps 736 mmHg 85%
    17:00 +22°C° 0.3 mm 5 mps 736 mmHg 87%
    18:00 +21°C° 0.3 mm 5 mps 736 mmHg 89%
    19:00 +21°C° 0.3 mm 5 mps 736 mmHg 90%
    20:00 +20°C° 0.1 mm 5 mps 737 mmHg 92%
    21:00 +20°C° 0.1 mm 4 mps 737 mmHg 94%
    22:00 +19°C° 0.1 mm 4 mps 737 mmHg 95%
    23:00 +19°C° 0.1 mm 4 mps 737 mmHg 96%

    Day after tomorrow, 20 July, Friday

    Time Temperature Precipitation Wind Pressure Humidity
    00:00 +19°C° 0.1 mm 4 mps 737 mmHg 96%
    01:00 +19°C° 0.1 mm 4 mps 737 mmHg 97%
    02:00 +19°C° 0.1 mm 4 mps 737 mmHg 97%
    03:00 +19°C° 0.1 mm 4 mps 737 mmHg 97%
    04:00 +19°C° 0.1 mm 4 mps 737 mmHg 96%
    05:00 +19°C° 0.1 mm 4 mps 737 mmHg 95%
    06:00 +19°C° 0.1 mm 4 mps 737 mmHg 94%
    07:00 +19°C° 0.1 mm 4 mps 738 mmHg 93%
    08:00 +20°C° 0.1 mm 5 mps 738 mmHg 90%
    09:00 +21°C° 0.1 mm 5 mps 738 mmHg 88%
    10:00 +22°C° 0.1 mm 5 mps 738 mmHg 85%
    11:00 +23°C° 0.1 mm 5 mps 738 mmHg 78%
    12:00 +25°C° 0.1 mm 5 mps 738 mmHg 72%
    13:00 +26°C° 0.1 mm 5 mps 738 mmHg 65%
    14:00 +26°C° 0 mm 5 mps 737 mmHg 65%
    15:00 +26°C° 0 mm 5 mps 737 mmHg 66%
    16:00 +26°C° 0 mm 5 mps 737 mmHg 66%
    17:00 +25°C° 0.1 mm 4 mps 737 mmHg 72%
    18:00 +24°C° 0.1 mm 3 mps 737 mmHg 78%
    19:00 +21°C° 0.1 mm 3 mps 737 mmHg 84%
    20:00 +20°C° 0 mm 2 mps 737 mmHg 87%
    21:00 +19°C° 0 mm 2 mps 737 mmHg 90%
    22:00 +18°C° 0 mm 2 mps 738 mmHg 92%
    23:00 +18°C° 0 mm 2 mps 737 mmHg 93%

    21 July, Saturday

    Time Temperature Precipitation Wind Pressure Humidity
    00:00 +18°C° 0 mm 2 mps 737 mmHg 94%
    01:00 +17°C° 0 mm 2 mps 737 mmHg 95%
    02:00 +17°C° 0 mm 2 mps 737 mmHg 96%
    03:00 +17°C° 0 mm 2 mps 737 mmHg 96%
    04:00 +17°C° 0 mm 2 mps 737 mmHg 96%
    05:00 +18°C° 0 mm 2 mps 737 mmHg 93%
    06:00 +20°C° 0 mm 2 mps 737 mmHg 89%
    07:00 +21°C° 0 mm 2 mps 737 mmHg 85%
    08:00 +23°C° 0 mm 2 mps 737 mmHg 78%
    09:00 +25°C° 0 mm 2 mps 737 mmHg 72%
    10:00 +26°C° 0 mm 2 mps 737 mmHg 66%
    11:00 +27°C° 0.1 mm 1 mps 737 mmHg 65%
    12:00 +27°C° 0.1 mm 1 mps 737 mmHg 63%
    13:00 +28°C° 0.1 mm 1 mps 737 mmHg 62%
    14:00 +28°C° 0.4 mm 1 mps 737 mmHg 63%
    15:00 +27°C° 0.4 mm 1 mps 736 mmHg 65%
    16:00 +27°C° 0.4 mm 1 mps 736 mmHg 66%
    17:00 +26°C° 0.6 mm 1 mps 736 mmHg 71%
    18:00 +23°C° 0.6 mm 0 mps 736 mmHg 76%
    19:00 +21°C° 0.6 mm 0 mps 736 mmHg 81%
    20:00 +20°C° 0.2 mm 0 mps 736 mmHg 83%
    21:00 +19°C° 0.2 mm 0 mps 736 mmHg 85%
    22:00 +18°C° 0.2 mm 0 mps 736 mmHg 87%
    23:00 +18°C° 0 mm 0 mps 736 mmHg 88%

    22 July, Sunday

    Time Temperature Precipitation Wind Pressure Humidity
    00:00 +18°C° 0 mm 0 mps 736 mmHg 89%
    01:00 +17°C° 0 mm 0 mps 736 mmHg 90%
    02:00 +17°C° 0 mm 0 mps 736 mmHg 91%
    03:00 +16°C° 0 mm 0 mps 736 mmHg 91%
    04:00 +18°C° 0 mm 1 mps 736 mmHg 92%
    05:00 +20°C° 0 mm 1 mps 736 mmHg 88%
    06:00 +21°C° 0 mm 1 mps 736 mmHg 85%
    07:00 +22°C° 0 mm 1 mps 736 mmHg 82%
    08:00 +24°C° 0.1 mm 1 mps 736 mmHg 77%
    09:00 +25°C° 0.1 mm 1 mps 736 mmHg 72%
    10:00 +27°C° 0.1 mm 2 mps 736 mmHg 67%
    11:00 +27°C° 0.6 mm 2 mps 736 mmHg 67%
    12:00 +27°C° 0.6 mm 2 mps 735 mmHg 67%
    13:00 +27°C° 0.6 mm 2 mps 735 mmHg 67%
    14:00 +27°C° 0.8 mm 2 mps 735 mmHg 69%
    15:00 +27°C° 0.8 mm 2 mps 735 mmHg 70%
    16:00 +27°C° 0.8 mm 2 mps 735 mmHg 72%
    17:00 +25°C° 0.3 mm 2 mps 735 mmHg 75%
    18:00 +24°C° 0.3 mm 1 mps 735 mmHg 78%
    19:00 +23°C° 0.3 mm 1 mps 735 mmHg 80%
    20:00 +22°C° 0.1 mm 1 mps 736 mmHg 81%
    21:00 +21°C° 0.1 mm 1 mps 736 mmHg 82%
    22:00 +20°C° 0.1 mm 1 mps 736 mmHg 83%
    23:00 +20°C° 0 mm 1 mps 736 mmHg 85%

    23 July, Monday

    Time Temperature Precipitation Wind Pressure Humidity
    00:00 +19°C° 0 mm 1 mps 736 mmHg 86%
    01:00 +19°C° 0 mm 1 mps 736 mmHg 88%
    02:00 +19°C° 0 mm 1 mps 736 mmHg 89%
    03:00 +18°C° 0 mm 1 mps 736 mmHg 90%
    04:00 +18°C° 0 mm 1 mps 736 mmHg 92%
    05:00 +18°C° 0 mm 2 mps 737 mmHg 90%
    06:00 +19°C° 0 mm 2 mps 737 mmHg 88%
    07:00 +20°C° 0 mm 2 mps 737 mmHg 86%
    08:00 +22°C° 0.1 mm 3 mps 737 mmHg 80%
    09:00 +23°C° 0.1 mm 4 mps 738 mmHg 74%
    10:00 +25°C° 0.1 mm 5 mps 738 mmHg 67%
    11:00 +26°C° 0.1 mm 5 mps 737 mmHg 65%
    12:00 +26°C° 0.1 mm 5 mps 737 mmHg 62%
    13:00 +27°C° 0.1 mm 5 mps 737 mmHg 59%
    14:00 +26°C° 0 mm 5 mps 737 mmHg 60%
    15:00 +26°C° 0 mm 5 mps 737 mmHg 61%
    16:00 +26°C° 0 mm 5 mps 737 mmHg 61%
    17:00 +25°C° 0 mm 4 mps 737 mmHg 67%
    18:00 +22°C° 0 mm 3 mps 738 mmHg 72%
    19:00 +21°C° 0 mm 3 mps 738 mmHg 77%
    20:00 +20°C° 0 mm 3 mps 738 mmHg 80%
    21:00 +19°C° 0 mm 3 mps 738 mmHg 82%
    22:00 +18°C° 0 mm 2 mps 738 mmHg 85%
    23:00 +17°C° 0 mm 2 mps 738 mmHg 87%
    Show more